Shawbury, United Kingdom

12:43 AM BST on September 27, 2016 (GMT +0100)
Shawbury Air Base

Weather History for EGOS - August, 2013

Change the Weather History Date:

Monday, August 19, 2013

  Actual Average Record
Temperature  
Mean Temperature 57 °F -  
Max Temperature 66 °F 66 °F 84 °F (1996)
Min Temperature 48 °F 52 °F 39 °F (1998)
Degree Days  
Heating Degree Days 8    
Growing Degree Days 7 (Base 50)    
Moisture  
Dew Point 49 °F    
Average Humidity 69    
Maximum Humidity 94    
Minimum Humidity 39    
Precipitation  
Precipitation 0.00 in - - ()
Sea Level Pressure  
Sea Level Pressure 30.11 in    
Wind  
Wind Speed 7 mph ()    
Max Wind Speed 14 mph    
Max Gust Speed -    
Visibility 7.3 miles    
Events      
Averages and records for this station are not official NWS values.
T = Trace of Precipitation, MM = Missing Value Source: Averaged Metar Reports

Daily Weather History Graph

Daily Weather History Graph

Search for Another Location

Airport or City:

Trip Planner

Search our weather history database for the weather conditions in past years. The results will help you decide how hot, cold, wet, or windy it might be!

Date:

Astronomy

Aug. 19, 2013 Rise Set
Actual Time 5:59 AM BST 8:28 PM BST
Civil Twilight 5:20 AM BST 9:06 PM BST
Nautical Twilight 4:32 AM BST 9:54 PM BST
Astronomical Twilight 3:33 AM BST 10:52 PM BST
Moon 7:10 PM BST (8/19) 3:54 AM BST (8/19)
Length of Visible Light 15h 45m
Length of Day
14h 28m
Waxing Gibbous, 96% of the Moon is Illuminated
Aug 19
Waxing Gibbous
Aug 21
Full
Aug 28
Last Quarter
Sep 5
New
Sep 12
First Quarter

Hourly Weather History & Observations

Time (BST) Temp. Dew Point Humidity Pressure Visibility Wind Dir Wind Speed Gust Speed Precip Events Conditions
12:50 AM 57 °F 52 °F 76% 29.92 in 11 mi West 4.6 mph - -   Overcast
12:50 AM 57.2 °F 51.8 °F 82% 29.92 in 6.2 mi West 4.6 mph - N/A   Overcast
1:50 AM 57.2 °F 51.8 °F 82% 29.92 in 6.2 mi West 9.2 mph - N/A   Overcast
2:50 AM 53.6 °F 50.0 °F 88% 29.95 in 6.2 mi West 8.1 mph - N/A   Partly Cloudy
3:50 AM 52 °F 50 °F 89% 29.97 in 12 mi West 5.8 mph - -   Scattered Clouds
3:50 AM 51.8 °F 50.0 °F 94% 29.95 in 6.2 mi West 5.8 mph - N/A   Partly Cloudy
4:50 AM 50.0 °F 48.2 °F 94% 29.98 in 6.2 mi WSW 6.9 mph - N/A   Partly Cloudy
5:50 AM 50.0 °F 48.2 °F 94% 29.98 in 6.2 mi West 5.8 mph - N/A   Partly Cloudy
6:50 AM 54 °F 50 °F 83% 30.03 in 12 mi WNW 5.8 mph - -   Mostly Cloudy
6:50 AM 53.6 °F 50.0 °F 88% 30.01 in 6.2 mi WNW 5.8 mph - N/A   Mostly Cloudy
7:50 AM 55.4 °F 50.0 °F 82% 30.04 in 6.2 mi WSW 8.1 mph - N/A   Mostly Cloudy
8:50 AM 59.0 °F 50.0 °F 72% 30.06 in 6.2 mi West 10.4 mph - N/A   Partly Cloudy
9:50 AM 61 °F 49 °F 56% 30.10 in 25 mi West 10.4 mph - -   Scattered Clouds
9:50 AM 60.8 °F 50.0 °F 68% 30.09 in 6.2 mi West 10.4 mph - N/A   Partly Cloudy
10:50 AM 60.8 °F 46.4 °F 59% 30.12 in 6.2 mi WNW 10.4 mph - N/A   Mostly Cloudy
11:50 AM 60.8 °F 46.4 °F 59% 30.12 in 6.2 mi West 6.9 mph - N/A   Mostly Cloudy
12:50 PM 64 °F 47 °F 42% 30.15 in 22 mi West 9.2 mph - -   Mostly Cloudy
12:50 PM 64.4 °F 46.4 °F 52% 30.15 in 6.2 mi West 9.2 mph - N/A   Mostly Cloudy
1:50 PM 64.4 °F 46.4 °F 52% 30.15 in 6.2 mi West 8.1 mph - N/A   Mostly Cloudy
2:50 PM 64.4 °F 46.4 °F 52% 30.18 in 6.2 mi West 13.8 mph - N/A   Mostly Cloudy
3:50 PM 65 °F 46 °F 39% 30.19 in 22 mi WSW 10.4 mph - -   Mostly Cloudy
3:50 PM 64.4 °F 46.4 °F 52% 30.18 in 6.2 mi WSW 10.4 mph - N/A   Mostly Cloudy
4:50 PM 64.4 °F 46.4 °F 52% 30.18 in 6.2 mi West 12.7 mph - N/A   Mostly Cloudy
5:50 PM 64.4 °F 48.2 °F 56% 30.21 in 6.2 mi WSW 10.4 mph - N/A   Mostly Cloudy
6:50 PM 63 °F 50 °F 52% 30.23 in 22 mi WSW 11.5 mph - -   Mostly Cloudy
6:50 PM 62.6 °F 50.0 °F 63% 30.21 in 6.2 mi WSW 11.5 mph - N/A   Mostly Cloudy
7:50 PM 60.8 °F 50.0 °F 68% 30.24 in 6.2 mi WSW 11.5 mph - N/A   Mostly Cloudy
8:50 PM 60.8 °F 48.2 °F 63% 30.24 in 6.2 mi WSW 9.2 mph - N/A   Mostly Cloudy
9:50 PM 58 °F 50 °F 66% 30.28 in 19 mi SW 6.9 mph - -   Mostly Cloudy
9:50 PM 57.2 °F 50.0 °F 77% 30.27 in 6.2 mi SW 6.9 mph - N/A   Mostly Cloudy
10:50 PM 57.2 °F 50.0 °F 77% 30.27 in - SW 6.9 mph - N/A   Clear
11:50 PM 55.4 °F 51.8 °F 88% 30.27 in - SW 6.9 mph - N/A   Clear